Date,TemperatureHighF,TemperatureAvgF,TemperatureLowF,DewpointHighF,DewpointAvgF,DewpointLowF,HumidityHigh,HumidityAvg,HumidityLow,PressureMaxIn,PressureMinIn,WindSpeedMaxMPH,WindSpeedAvgMPH,GustSpeedMaxMPH,PrecipitationSumIn
2013-2-1,9,4,-2,0,-5,-11,75,66,53,0.00,40.00,9,5,19,0.00
2013-2-2,14,1,-6,-2,-8,-14,80,64,47,0.00,40.00,6,4,16,0.00
2013-2-3,12,5,-3,1,-4,-8,80,68,43,0.00,40.00,10,5,20,0.00
2013-2-4,14,1,-7,-3,-8,-13,78,68,45,0.00,40.00,6,3,15,0.00
2013-2-5,22,10,-3,13,2,-9,83,71,57,0.00,40.00,9,4,18,0.00
2013-2-6,24,11,-4,15,3,-9,88,72,42,0.00,40.00,5,2,9,0.00
2013-2-7,20,19,17,18,16,13,91,88,75,0.00,40.00,7,3,15,0.00
2013-2-8,24,16,2,15,9,-2,88,75,54,0.00,40.00,7,4,16,0.00
2013-2-9,27,15,-2,18,8,-7,84,77,61,0.00,40.00,9,4,22,0.00
2013-2-10,32,26,21,31,24,17,97,90,82,0.00,40.00,10,6,21,0.00
2013-2-11,33,28,18,32,26,13,98,90,77,0.00,40.00,12,6,26,0.00
2013-2-12,25,20,14,16,14,11,88,80,63,0.00,40.00,8,4,14,0.00
2013-2-13,40,25,14,26,19,11,94,79,53,0.00,40.00,5,3,10,0.00
2013-2-14,29,24,16,26,20,7,95,84,68,0.00,40.00,10,6,23,0.00
2013-2-15,18,13,2,9,3,-3,79,65,43,0.00,40.00,9,6,18,0.00
2013-2-16,17,8,0,2,-2,-5,80,66,44,0.00,40.00,9,5,16,0.00
2013-2-17,23,10,-6,1,-4,-12,79,57,32,0.00,40.00,7,4,13,0.00
2013-2-18,34,26,13,29,20,-1,96,79,53,0.00,40.00,9,5,20,0.00
2013-2-19,30,16,8,29,11,0,96,78,60,0.00,40.00,17,12,37,0.00
2013-2-20,15,11,8,7,5,2,82,76,70,0.00,40.00,13,10,28,0.00
2013-2-21,21,17,12,18,14,7,92,88,79,0.00,40.00,9,5,18,0.00
2013-2-22,22,19,15,20,17,12,92,90,88,0.00,40.00,7,4,15,0.00
2013-2-23,31,24,16,26,20,14,93,87,75,0.00,40.00,6,3,12,0.00
2013-2-24,31,27,24,23,22,20,90,81,66,0.00,40.00,6,4,14,0.00
2013-2-25,34,27,16,24,21,14,92,80,62,0.00,40.00,4,2,8,0.00
2013-2-26,33,29,26,27,24,22,94,82,65,0.00,40.00,6,3,14,0.00
2013-2-27,31,29,27,29,26,22,94,88,79,0.00,40.00,9,7,23,0.00
2013-2-28,29,25,21,27,20,15,93,83,74,0.00,40.00,11,8,26,0.00